Regional Weather Roundup
Issued by NWS Sterling, VA

Home | Current Version | Previous Version | Graphics & Text | Print | Product List | Glossary On
Versions: 1 2 3 4 5 6 7 8 9 10 11 12 13 14 15 16 17 18 19 20 21 22 23 24 25 26 27 28
000
ASUS41 KLWX 150710
RWRLWX

REGIONAL WEATHER ROUNDUP
NATIONAL WEATHER SERVICE BALTIMORE MD/WASHINGTON DC
300 AM EDT TUE APR 15 2014

Note: "FAIR" indicates few or no clouds below 12,000 feet
with no significant weather and/or obstructions to visibility.
 TC=TEMPERATURE CELSIUS

 * =Non NWS site. Station does not report precipitation (e.g. rain,
    snow, etc.), thunder, or fog.

DCZ001-MDZ009-015-VAZ040>042-051-053>054-150800-
WASHINGTON METRO

CITY           SKY/WX    TMP DP  RH WIND       PRES   REMARKS
WASHINGTON NAT CLOUDY    68  60  75 S8        29.75F
DULLES         CLOUDY    67  58  72 S12G18    29.73F
ANDREWS AFB    CLOUDY    67  58  71 S10       29.75F
FT BELVOIR     CLOUDY    69  60  73 S7        29.75F
QUANTICO       MOCLDY    64  59  83 S12       29.75F
COLLEGE PARK*  CLOUDY    64  63  94 CALM      29.74F
LEESBURG*      CLOUDY    68  63  83 S10       29.73F
MANASSAS*      CLOUDY    70  61  73 S14G20    29.73F
GAITHERSBURG*  CLOUDY    66  57  72 SE8       29.76F

$$

MDZ006>007-011-014-150800-
BALTIMORE METRO

CITY           SKY/WX    TMP DP  RH WIND       PRES   REMARKS
BWI AIRPORT    CLOUDY    62  56  80 SE8       29.75F
MD SCIENCE CTR   N/A     63  57  81 MISG      29.76F
MARTIN STATE   CLOUDY    63  61  94 SE16G22   29.78F
ANNAPOLIS      MOCLDY    62  58  86 S14       29.76F
FORT MEADE*    CLOUDY    61  55  82 SE3       29.77F

$$

MDZ012-015-019>023-150800-
MARYLAND EASTERN SHORE

CITY           SKY/WX    TMP DP  RH WIND       PRES   REMARKS
OCEAN CITY     FOG       56  55  97 SW10      29.86F VSB 3/4
SALISBURY      CLOUDY    66  62  87 S10       29.83F
BAY BRIDGE AP* MOCLDY    63  61  94 SE9       29.78F
CAMBRIDGE*     CLOUDY    64  61  88 S16       29.80F
EASTON*        MOCLDY    66  66 100 S10       29.83F

$$

MDZ017>025-150800-
SOUTHERN MARYLAND

CITY           SKY/WX    TMP DP  RH WIND       PRES   REMARKS
PATUXENT RIVER PTCLDY    57  55  93 SE10      29.78F
ST INIGOES     MOCLDY    63  59  87 SE9G18    29.78F
LEONARDTOWN*   CLOUDY    64  59  82 SE7       29.80F

$$

MDZ003>005-150800-
NORTH CENTRAL MARYLAND

CITY           SKY/WX    TMP DP  RH WIND       PRES   REMARKS
FREDERICK*     CLOUDY    68  63  83 S12       29.74F
HAGERSTOWN APT CLOUDY    66  57  72 S16       29.68F
WESTMINSTER*   LGT RAIN  66  61  82 S15G21      N/A

$$

MDZ501>502-150800-
WESTERN MARYLAND

CITY           SKY/WX    TMP DP  RH WIND       PRES   REMARKS
OAKLAND*       MOCLDY    54  54 100 S9        29.69F
CUMBERLAND*    MOCLDY    61  59  94 CALM      29.70F

$$

VAZ025>031-150800-
SHENANDOAH VALLEY

CITY           SKY/WX    TMP DP  RH WIND       PRES   REMARKS
WINCHESTER*    RAIN      64  57  77 S6        29.70F
STAUNTON*      CLOUDY    61  58  91 S5        29.72F

$$

WVZ021-048>050-054>055-150800-
EASTERN WEST VIRGINIA PANHANDLE

CITY           SKY/WX    TMP DP  RH WIND       PRES   REMARKS
MARTINSBURG    CLOUDY    67  55  65 S8        29.69F
PETERSBURG*    LGT RAIN  66  63  88 CALM      29.67F

$$

VAZ036>039-050-150800-
CENTRAL FOOTHILLS

CITY           SKY/WX    TMP DP  RH WIND       PRES   REMARKS
CHARLOTTESVILL CLOUDY    64  61  90 S15G31    29.71F
CULPEPER*      DRIZZLE   70  61  73 S7        29.73F

$$

VAZ055>057-150800-
NORTH AND CENTRAL PIEDMONT

CITY           SKY/WX    TMP DP  RH WIND       PRES   REMARKS
FREDERICKSBRG* MOCLDY    70  61  73 S13G20    29.74F
STAFFORD*      CLOUDY    69  61  76 S10G16    29.79F

$$

NCZ024-NYZ072-PAZ021-071-VAZ022-071-150800-
OTHER REGIONAL OBSERVATIONS

CITY           SKY/WX    TMP DP  RH WIND       PRES   REMARKS
NEW YORK CITY  PTCLDY    57  52  83 SE9       29.85S
PHILADELPHIA   LGT RAIN  65  57  75 S12       29.81S
PITTSBURGH     CLOUDY    64  54  69 S8        29.56F
ROANOKE        RAIN      61  60  97 W5        29.73F FOG
RICHMOND       MOCLDY    70  61  73 S17G24    29.77F
RALEIGH        CLOUDY    68  63  84 S14G23    29.80F

$$

ANZ530>537-150800-
MARINE OBSERVATIONS

STATION/POSITION TIME  TEMP    WIND        PRES
                       AIR SEA DIR/SP/G
                 (UTC) (F)     (DEG/KT/KT) (MB)
THOMAS PT LIGHT  0700   58 52  160/ 19/ 19 1008.3F
BALT KEY BRIDGE  0700   62     140/ 15/ 17 1007.5F
COVE POINT       0700   55     180/ 16/ 18 1008.5F
LEWISETTA        0700   62 51  160/  8/ 10 1008.3F
SOLOMONS ISLAND  0700      53                N/A
PINEY POINT      0700          160/ 12/ 12   N/A

$$




USA.gov is the U.S. government's official web portal to all federal, state and local government web resources and services.